Waarnemingen

Advertentie
Mijn weer
Florennes, België (6456): temperatuur & dauwpunt: 04.12.2018 23:00:00 - 10.12.2018 23:00:00 (CET)Florennes, België (6456): windsnelheid & windstoten: 04.12.2018 23:00:00 - 10.12.2018 23:00:00 (CET)Florennes, België (6456): windrichting: 04.12.2018 23:00:00 - 10.12.2018 23:00:00 (CET)Florennes, België (6456): luchtdruk: 04.12.2018 23:00:00 - 10.12.2018 23:00:00 (CET)Florennes, België (6456): zicht: 04.12.2018 23:00:00 - 10.12.2018 23:00:00 (CET)
Datum & Tijd tt [°C] td [°C] ff [km/u] ff [kn] fx [km/u] fx [kn] dd ppp [hPa] vv [km]
10.12.2018 23:00:00 3,0 1,7 7 4 14 8 WNW 1027,0 20
10.12.2018 22:00:00 3,2 1,5 11 6 - - WNW 1027,0 10
10.12.2018 21:00:00 3,0 1,2 9 5 14 8 WNW 1027,0 10
10.12.2018 20:00:00 3,3 1,3 11 6 18 10 WNW 1026,9 20
10.12.2018 19:00:00 3,8 1,8 11 6 - - WNW 1026,5 20
10.12.2018 18:00:00 4,6 2,5 14 8 22 12 WNW 1026,0 20
10.12.2018 17:00:00 5,0 2,7 11 6 32 18 NW 1026,0 20
10.12.2018 16:00:00 5,5 2,7 18 10 - - WNW 1025,4 20
10.12.2018 15:00:00 5,8 3,1 18 10 32 18 W 1025,0 20
10.12.2018 14:00:00 5,6 3,2 18 10 32 18 W 1025,2 20
10.12.2018 13:00:00 5,6 3,3 22 12 - - WNW 1025,5 20
10.12.2018 12:00:00 5,5 3,9 18 10 32 18 W 1025,5 20
10.12.2018 11:00:00 5,0 3,8 18 10 32 18 W 1025,5 15
10.12.2018 10:00:00 4,8 3,7 22 12 - - W 1024,9 15
10.12.2018 09:00:00 4,4 3,4 18 10 29 16 W 1024,5 10
10.12.2018 08:00:00 4,5 3,2 18 10 29 16 W 1024,0 10
10.12.2018 07:00:00 3,9 2,4 18 10 - - W 1023,7 20
10.12.2018 06:00:00 3,4 1,9 14 8 22 12 W 1023,5 20
10.12.2018 05:00:00 3,0 1,9 14 8 22 12 W 1023,1 20
10.12.2018 04:00:00 3,4 1,8 14 8 - - W 1022,5 20
10.12.2018 03:00:00 4,2 2,7 18 10 25 14 W 1021,8 20
10.12.2018 02:00:00 4,2 3,1 18 10 25 14 W 1021,2 20
10.12.2018 01:00:00 3,4 2,0 14 8 - - W 1020,7 20
10.12.2018 00:00:00 4,0 2,2 14 8 25 14 W 1020,1 20
09.12.2018 23:00:00 4,2 2,1 14 8 29 16 W 1019,1 20
09.12.2018 22:00:00 4,6 2,6 18 10 - - W 1018,2 20
09.12.2018 21:00:00 4,6 2,4 18 10 32 18 W 1017,2 20
09.12.2018 20:00:00 5,9 2,8 22 12 36 19 WNW 1016,1 20
09.12.2018 19:00:00 6,0 3,5 22 12 - - WNW 1014,7 20
09.12.2018 18:00:00 6,3 3,6 18 10 36 19 WNW 1012,7 10
09.12.2018 17:00:00 6,8 4,4 22 12 40 21 WNW 1011,2 20
09.12.2018 16:00:00 6,7 4,8 25 14 - - NW 1009,2 20
09.12.2018 15:00:00 7,5 5,8 25 14 47 25 WNW 1007,2 20
09.12.2018 14:00:00 7,1 5,5 22 12 54 29 WNW 1005,7 11
09.12.2018 13:00:00 7,6 5,4 32 18 - - W 1004,7 20
09.12.2018 12:00:00 7,4 5,8 29 16 54 29 W 1003,7 15
09.12.2018 11:00:00 7,5 5,7 32 18 47 25 WZW 1003,6 18
09.12.2018 10:00:00 7,1 5,4 32 18 - - WZW 1003,3 7
09.12.2018 09:00:00 7,1 5,3 35 19 50 27 W 1003,2 4,3
09.12.2018 08:00:00 6,9 5,2 29 16 65 35 W 1002,7 19
09.12.2018 07:00:00 7,3 4,5 34 18 - - WZW 1002,3 10
09.12.2018 06:00:00 7,5 4,1 40 21 58 31 W 1002,1 20
09.12.2018 05:00:00 7,3 4,5 40 21 54 29 W 1001,6 20
09.12.2018 04:00:00 6,9 4,4 32 18 - - WZW 1001,2 20
09.12.2018 03:00:00 6,8 4,2 43 23 61 33 WZW 1001,0 20
09.12.2018 02:00:00 8,1 5,4 39 21 61 33 WZW 1000,7 5
09.12.2018 01:00:00 8,6 5,6 36 19 - - WZW 1000,5 18
09.12.2018 00:00:00 8,4 5,7 32 18 61 33 WZW 1000,7 20
08.12.2018 23:00:00 8,5 5,7 39 21 61 33 WZW 1000,7 10
08.12.2018 22:00:00 9,5 7,2 41 22 - - WZW 1000,5 4,4
08.12.2018 21:00:00 9,1 7,8 36 19 72 39 WZW 1001,1 20
08.12.2018 20:00:00 8,6 7,6 40 21 61 33 ZW 1002,1 4,8
08.12.2018 19:00:00 8,0 7,0 36 19 - - ZZW 1003,7 10
08.12.2018 18:00:00 7,5 6,5 36 19 58 31 ZZW 1005,7 5
08.12.2018 17:00:00 7,5 6,3 34 18 58 31 ZW 1007,0 5
08.12.2018 16:00:00 7,9 5,6 41 22 - - ZW 1007,6 10
08.12.2018 15:00:00 8,3 5,5 36 19 58 31 ZW 1008,0 20
08.12.2018 14:00:00 8,3 5,4 36 19 58 31 WZW 1008,7 20
08.12.2018 13:00:00 8,1 5,1 40 21 - - WZW 1008,6 20
08.12.2018 12:00:00 7,8 4,9 40 21 61 33 WZW 1008,7 20
08.12.2018 11:00:00 7,3 4,6 40 21 68 37 WZW 1008,7 20
08.12.2018 10:00:00 6,8 4,5 43 23 - - ZW 1008,7 20
08.12.2018 09:00:00 6,1 4,5 32 18 50 27 ZW 1008,5 20
08.12.2018 08:00:00 5,5 4,3 32 18 54 29 ZW 1009,0 7
08.12.2018 07:00:00 5,4 3,7 40 21 - - ZW 1008,8 14
08.12.2018 06:00:00 5,2 3,6 32 18 54 29 ZW 1009,2 12
08.12.2018 05:00:00 5,2 3,5 32 18 50 27 ZW 1009,3 20
08.12.2018 04:00:00 5,1 3,6 32 18 - - ZW 1010,0 20
08.12.2018 03:00:00 5,0 3,7 25 14 43 23 ZW 1010,2 20
08.12.2018 02:00:00 4,6 3,0 25 14 50 27 ZW 1010,3 20
08.12.2018 01:00:00 4,6 3,0 36 19 - - WZW 1010,5 14
08.12.2018 00:00:00 4,5 2,8 32 18 61 33 ZW 1010,5 5
07.12.2018 23:00:00 5,4 2,8 29 16 47 25 WZW 1009,7 13
07.12.2018 22:00:00 5,6 3,4 29 16 - - WZW 1008,7 20
07.12.2018 21:00:00 6,0 3,4 25 14 43 23 WZW 1007,8 20
07.12.2018 20:00:00 6,5 4,0 29 16 40 21 W 1006,5 20
07.12.2018 19:00:00 7,0 4,2 34 18 - - W 1005,2 10
07.12.2018 18:00:00 6,6 5,1 25 14 54 29 WZW 1003,7 20
07.12.2018 17:00:00 7,1 5,3 40 21 83 45 W 1002,6 11
07.12.2018 16:00:00 8,8 8,0 29 16 - - ZZW 1001,5 4,8
07.12.2018 15:00:00 8,8 7,9 31 17 54 29 ZZW 1002,8 8
07.12.2018 14:00:00 9,2 7,5 36 19 58 31 ZZW 1004,3 5
07.12.2018 13:00:00 9,3 8,2 36 19 - - ZZW 1006,2 6
07.12.2018 12:00:00 9,6 8,6 32 18 54 29 Z 1007,7 5
07.12.2018 11:00:00 9,6 8,7 29 16 47 25 ZZW 1009,7 5
07.12.2018 10:00:00 9,6 8,8 29 16 - - ZZW 1010,7 5
07.12.2018 09:00:00 9,3 8,7 25 14 50 27 ZZW 1011,7 3,0
07.12.2018 08:00:00 9,3 8,7 25 14 40 21 ZZW 1012,5 3,0
07.12.2018 07:00:00 9,3 8,6 25 14 - - ZZW 1013,3 3,0
07.12.2018 06:00:00 9,4 8,7 28 15 40 21 ZZW 1014,0 3,0
07.12.2018 05:00:00 9,6 8,8 25 14 40 21 ZZW 1014,7 5
07.12.2018 04:00:00 9,7 9,0 22 12 - - ZZW 1015,6 4,8
07.12.2018 03:00:00 9,8 9,1 22 12 32 18 ZZW 1016,5 5
07.12.2018 02:00:00 9,9 8,9 22 12 40 21 ZZW 1017,0 14
07.12.2018 01:00:00 10,2 8,7 22 12 - - ZW 1017,8 10
07.12.2018 00:00:00 10,6 8,7 25 14 40 21 ZW 1018,2 20
06.12.2018 23:00:00 10,6 9,2 22 12 36 19 ZW 1018,5 20
06.12.2018 22:00:00 10,6 9,5 25 14 - - ZW 1018,7 20
06.12.2018 21:00:00 10,6 9,7 22 12 36 19 ZW 1018,8 19
06.12.2018 20:00:00 10,6 9,8 22 12 36 19 ZW 1018,8 4,5
06.12.2018 19:00:00 10,5 9,8 25 14 - - ZW 1018,7 7
06.12.2018 18:00:00 10,5 9,8 18 10 29 16 ZW 1018,8 16
06.12.2018 17:00:00 10,6 9,6 18 10 29 16 ZW 1018,8 10
06.12.2018 16:00:00 10,8 9,9 18 10 - - ZW 1018,7 15
06.12.2018 15:00:00 10,8 9,7 18 10 29 16 ZW 1018,5 15
06.12.2018 14:00:00 11,1 9,4 18 10 29 16 ZW 1018,6 20
06.12.2018 13:00:00 11,0 9,2 22 12 - - ZW 1018,3 20
06.12.2018 12:00:00 10,6 8,8 18 10 29 16 ZW 1019,2 20
06.12.2018 11:00:00 10,5 9,2 18 10 25 14 ZW 1018,8 14
06.12.2018 10:00:00 10,1 9,3 14 8 - - ZW 1018,2 7
06.12.2018 09:00:00 10,0 9,0 11 6 22 12 ZW 1017,7 5
06.12.2018 08:00:00 10,0 8,9 14 8 25 14 WZW 1017,3 15
06.12.2018 07:00:00 9,9 8,8 18 10 - - ZW 1016,7 10
06.12.2018 06:00:00 9,8 8,9 18 10 25 14 ZW 1015,8 6
06.12.2018 05:00:00 9,3 8,8 14 8 25 14 ZW 1015,6 6
06.12.2018 04:00:00 9,0 8,5 14 8 - - ZW 1015,2 9
06.12.2018 03:00:00 8,8 8,1 18 10 32 18 ZZW 1014,8 18
06.12.2018 02:00:00 8,8 8,0 18 10 25 14 ZZW 1014,7 11
06.12.2018 01:00:00 8,5 7,6 18 10 - - Z 1014,8 8
06.12.2018 00:00:00 8,8 7,2 14 8 25 14 ZZW 1015,1 20
05.12.2018 23:00:00 8,5 6,8 18 10 36 19 Z 1014,6 20
05.12.2018 22:00:00 8,6 6,5 25 14 - - Z 1015,2 20
05.12.2018 21:00:00 8,6 6,3 25 14 36 19 Z 1015,7 20
05.12.2018 20:00:00 8,3 6,2 25 14 43 23 Z 1015,7 20
05.12.2018 19:00:00 8,2 6,0 25 14 - - Z 1016,3 20
05.12.2018 18:00:00 8,3 6,0 22 12 32 18 Z 1017,1 20
05.12.2018 17:00:00 8,3 6,2 22 12 32 18 ZZO 1017,7 20
05.12.2018 16:00:00 8,3 6,2 22 12 - - Z 1018,5 20
05.12.2018 15:00:00 8,8 6,3 14 8 22 12 Z 1019,2 20
05.12.2018 14:00:00 8,6 6,1 18 10 29 16 Z 1020,2 20
05.12.2018 13:00:00 8,3 6,1 18 10 - - Z 1021,0 20
05.12.2018 12:00:00 7,2 5,3 7 4 22 12 ZZO 1022,2 20
05.12.2018 11:00:00 6,4 4,0 14 8 22 12 ZZO 1023,1 20
05.12.2018 10:00:00 5,0 3,3 11 6 - - ZZO 1023,7 20
05.12.2018 09:00:00 4,4 3,0 7 4 11 6 OZO 1024,2 20
05.12.2018 08:00:00 4,4 2,5 4 2 11 6 N 1024,5 20
05.12.2018 07:00:00 4,5 2,2 7 4 - - ZZO 1024,5 20
05.12.2018 06:00:00 3,4 2,0 7 4 11 6 OZO 1025,0 20
05.12.2018 05:00:00 3,2 1,7 7 4 11 6 ZZO 1025,0 20
05.12.2018 04:00:00 3,0 1,6 7 4 - - ZO 1025,2 20
05.12.2018 03:00:00 2,9 1,4 4 2 7 4 N 1025,9 20
05.12.2018 02:00:00 2,9 1,6 7 4 7 4 ONO 1025,7 20
05.12.2018 01:00:00 1,9 1,1 4 2 - - N 1026,4 17
05.12.2018 00:00:00 2,5 1,6 4 2 7 4 N 1026,5 16
04.12.2018 23:00:00 3,0 1,9 4 2 7 4 N 1026,4 20

tt = temperatuur
td = dauwpunt
ff = windsnelheid
fx = windstoten
dd = windrichting
ppp = luchtdruk
vv = zicht

Weerstations in de omgeving